[[{"header":{"parameterUnit":"m.s-1","parameterCategory":1,"la1":30.2992,"la2":30.254,"lo1":-89.0895,"lo2":-89.0443,"dy":0.0025,"dx":0.0025,"nx":19,"ny":19,"refTime":"2026-05-01T21:00:00:Z","depth":0,"parameterNumber":2,"parameterNumberName":"U-component_of_WINDS"},"data":[0,0,0,-1.6425,-1.643,-1.6667,-1.6668,-1.6995,-1.6998,0,0,0,0,0,0,0,0,0,0,0,-1.6369,-1.6372,-1.6425,-1.6431,-1.6667,-1.6668,-1.6994,-1.6998,0,0,0,0,0,0,0,0,0,0,0,-1.6368,-1.6371,-1.6374,-1.6432,-1.6667,-1.6668,-1.6993,-1.6807,0,0,0,0,0,0,0,0,0,0,-1.6573,-1.6535,-1.637,-1.6374,-1.6433,-1.6666,-1.6668,-1.6797,-1.6818,-1.6898,0,-1.6971,0,-1.699,-1.7021,-1.7022,0,0,0,-1.6421,-1.6517,-1.6568,-1.6375,-1.6436,-1.6666,-1.6558,-1.6809,-1.6833,-1.6926,-1.6976,-1.6987,-1.6995,-1.7023,-1.7025,-1.7514,-1.7517,0,0,-1.6408,-1.642,-1.6552,-1.6584,-1.6548,-1.655,-1.6565,-1.6823,-1.6878,-1.6977,-1.6994,-1.7,-1.7026,-1.7028,-1.7512,-1.7515,0,0,0,-1.6377,-1.6411,-1.6455,-1.6571,-1.6612,-1.6557,-1.6574,-1.6867,-1.688,-1.6998,-1.7004,-1.7028,-1.7032,-1.7509,-1.7513,-1.7661,0,0,0,-1.6369,-1.6393,-1.645,-1.6459,-1.6608,-1.6742,-1.6613,-1.6862,-1.6891,-1.7003,-1.7028,-1.7035,-1.7505,-1.7511,-1.765,-1.7731,0,0,0,-1.6349,-1.639,-1.6429,-1.6459,-1.6561,-1.6738,-1.6765,-1.6868,-1.6896,-1.7023,-1.7036,-1.7503,-1.751,-1.7641,-1.7715,-1.7865,0,0,0,-1.6332,-1.6557,-1.6431,-1.6686,-1.6559,-1.6826,-1.6763,-1.6962,-1.7088,-1.703,-1.7506,-1.7512,-1.7638,-1.7705,-1.7855,-1.7995,-1.8053,0,0,-1.6623,-1.6593,-1.6742,-1.6636,-1.6928,-1.6789,-1.7104,-1.7209,-1.7211,-1.7413,-1.7425,-1.7654,-1.7714,-1.7863,-1.8371,-1.8418,0,0,0,-1.6838,-1.6946,-1.7021,-1.7141,-1.7225,-1.7305,-1.736,-1.7399,-1.757,-1.7317,-1.7746,-1.7781,-1.7868,-1.7935,-1.7975,-1.805,-1.7543,-1.7542,-1.7541,-1.7271,-1.7259,-1.7505,-1.7523,-1.764,-1.7694,-1.7789,-1.7851,-1.7806,-1.7907,-1.7969,-1.8279,-1.8357,-1.8387,-1.8465,-1.8039,-1.8039,-1.804,-1.804,-1.77,-1.7852,-1.7784,-1.8,-1.7987,-1.8168,-1.8229,-1.819,-1.8359,-1.8231,-1.8307,-1.8173,-1.8438,-1.8507,-1.8051,-1.8049,-1.8048,-1.8047,-1.8046,-1.7985,-1.8056,-1.8097,-1.827,-1.8404,-1.8412,-1.8577,-1.8558,-1.8543,-1.8617,-1.8682,-1.8679,-1.8678,-1.8648,-1.8649,-1.865,-1.8651,-1.8652,-1.8653,-1.8266,-1.8308,-1.8448,-1.8556,-1.863,-1.8726,-1.8781,-1.8855,-1.8932,-1.8906,-1.8906,-1.8854,-1.8465,-1.837,-1.867,-1.8667,-1.8664,-1.8663,-1.8662,-1.8713,-1.8608,-1.8825,-1.89,-1.9025,-1.916,-1.9132,-1.9284,-1.9341,-1.9424,-1.9353,-1.9067,-1.9036,-1.9004,-1.8926,-1.9352,-1.9352,-1.9352,-1.9352,-1.8956,-1.8937,-1.9155,-1.9276,-1.9391,-1.9388,-1.9636,-1.968,-1.971,-1.9746,-1.968,-1.9573,-1.9541,-1.9529,-1.9486,-1.9413,-1.9954,-1.9954,-1.9955,-1.9232,-1.9222,-1.9437,-1.9463,-1.9559,-1.9642,-1.9875,-2.0017,-2.0029,-1.9979,-1.9774,-1.9749,-1.9575,-1.9518,-1.9468,-1.9402,-1.9267,0,0]},{"header":{"parameterUnit":"m.s-1","parameterCategory":1,"la1":30.2992,"la2":30.254,"lo1":-89.0895,"lo2":-89.0443,"dy":0.0025,"dx":0.0025,"nx":19,"ny":19,"refTime":"2026-05-01T21:00:00:Z","depth":0,"parameterNumber":3,"parameterNumberName":"V-component_of_WINDS"},"data":[0,0,0,-3.6266,-3.627,-3.6456,-3.6457,-3.6705,-3.6707,0,0,0,0,0,0,0,0,0,0,0,-3.6219,-3.6221,-3.6266,-3.6271,-3.6456,-3.6457,-3.6705,-3.6707,0,0,0,0,0,0,0,0,0,0,0,-3.6218,-3.622,-3.6223,-3.6271,-3.6456,-3.6457,-3.6704,-3.656,0,0,0,0,0,0,0,0,0,0,-3.6378,-3.6342,-3.622,-3.6223,-3.6272,-3.6455,-3.6457,-3.6553,-3.6569,-3.6626,0,-3.6679,0,-3.6697,-3.6725,-3.6726,0,0,0,-3.6265,-3.6328,-3.6371,-3.6223,-3.6274,-3.6455,-3.6371,-3.6562,-3.658,-3.6648,-3.6683,-3.6691,-3.6701,-3.6726,-3.6728,-3.7076,-3.7078,0,0,-3.6255,-3.6256,-3.6359,-3.6384,-3.6356,-3.6365,-3.6377,-3.6573,-3.6611,-3.6683,-3.6697,-3.6706,-3.6728,-3.673,-3.7074,-3.7076,0,0,0,-3.6229,-3.6249,-3.6287,-3.6374,-3.6406,-3.637,-3.6384,-3.6602,-3.6614,-3.67,-3.6708,-3.673,-3.6733,-3.7072,-3.7075,-3.717,0,0,0,-3.6223,-3.6234,-3.6283,-3.6286,-3.6403,-3.6507,-3.6409,-3.6601,-3.6623,-3.6707,-3.673,-3.6735,-3.707,-3.7073,-3.7163,-3.7216,0,0,0,-3.6204,-3.6232,-3.6261,-3.6285,-3.6365,-3.6503,-3.6527,-3.6606,-3.6629,-3.6726,-3.6736,-3.7068,-3.7073,-3.7157,-3.7205,-3.7308,0,0,0,-3.6184,-3.6343,-3.6263,-3.6443,-3.6364,-3.6561,-3.6526,-3.6672,-3.6767,-3.6731,-3.707,-3.7075,-3.7155,-3.7199,-3.7302,-3.7397,-3.7436,0,0,-3.6386,-3.6368,-3.6474,-3.6407,-3.6619,-3.6532,-3.6758,-3.6843,-3.6851,-3.7,-3.7009,-3.7165,-3.7204,-3.7307,-3.7652,-3.7684,0,0,0,-3.6538,-3.6614,-3.667,-3.676,-3.6829,-3.6892,-3.6942,-3.6974,-3.71,-3.6928,-3.7229,-3.7253,-3.7313,-3.7358,-3.7385,-3.7437,-3.7095,-3.7095,-3.7094,-3.6826,-3.6827,-3.7002,-3.7026,-3.7113,-3.7163,-3.7234,-3.7285,-3.726,-3.7332,-3.7377,-3.7586,-3.7639,-3.7659,-3.7713,-3.7425,-3.7426,-3.7426,-3.7426,-3.7122,-3.7231,-3.7193,-3.7351,-3.735,-3.7482,-3.7535,-3.7513,-3.7636,-3.7552,-3.7605,-3.7516,-3.7694,-3.7741,-3.7433,-3.7432,-3.7431,-3.7431,-3.743,-3.7313,-3.7365,-3.74,-3.7529,-3.7629,-3.7646,-3.7765,-3.776,-3.7756,-3.7809,-3.7856,-3.7855,-3.7854,-3.7831,-3.7832,-3.7833,-3.7833,-3.7834,-3.7834,-3.7498,-3.7533,-3.7635,-3.772,-3.7777,-3.785,-3.79,-3.7956,-3.8017,-3.8004,-3.8004,-3.7973,-3.771,-3.7645,-3.7846,-3.7844,-3.7842,-3.7841,-3.784,-3.7801,-3.7731,-3.7888,-3.7945,-3.8044,-3.8143,-3.8134,-3.8247,-3.8292,-3.8351,-3.8308,-3.8114,-3.8095,-3.8074,-3.8021,-3.8307,-3.8307,-3.8307,-3.8307,-3.7964,-3.7953,-3.8112,-3.8203,-3.8291,-3.8298,-3.8475,-3.8515,-3.8545,-3.8573,-3.853,-3.8458,-3.8436,-3.8431,-3.8402,-3.8352,-3.8715,-3.8716,-3.8716,-3.8151,-3.8148,-3.8301,-3.8329,-3.8405,-3.847,-3.8637,-3.8743,-3.8762,-3.8733,-3.8595,-3.8578,-3.8461,-3.8422,-3.8393,-3.8348,-3.8256,0,0]}]]